Location: The Saddle
(36.8333°N, 80.3417°W)
Time: 12:08:32
(UTC-05:00)

SR - Pass Details

Date: 14 December 2023
Orbit: 574 x 867 km, 66.7° (Epoch: 03 March)

Event Time Altitude Azimuth Distance (km) Brightness Sun altitude
Rises 17:43:10 0° 340° (NNW) 3,429 ? -7.5°
Reaches altitude 10° 17:45:55 10° 349° (N) 2,465 ? -8.0°
Maximum altitude 17:51:06 35° 54° (NE) 1,290 ? -9.0°
Drops below altitude 10° 17:55:57 10° 119° (ESE) 2,305 ? -9.9°
Sets 17:58:27 0° 129° (SE) 3,179 ? -10.4°
